FOSSASAT-2E11 (52750 NORAD) Tracking and Keplerian Element Data

This shows tracking and keplerian element data for the satellite.

Feedback or suggestion? Click here.




ElementValue
Catalog52750
NameFOSSASAT-2E11
Epoch Orbit713
Epoch Day192.89480565
Epoch Year2022
RAAN307.3188
Inclination97.5246
Eccentricity0.0013058
Argument of Perigee81.4857
Mean Anonmoly278.7854
Mean Motion15.13829087
Decay Rate0.00012321
L11 52750U 22057U 22192.89480565 .00012321 00000+0 68355-3 0 9994
L22 52750 97.5246 307.3188 0013058 81.4857 278.7854 15.13829087 7130

Live tracking and technical data element details for FOSSASAT-2E11 (NORAD 52750). FOSSASAT-2E11 can be tracked NOW for your location showing map with azimuth and elevation plus other details from your city location.

Track the satellite on the map from your city or location and see movement details for azimuth, elevation, latitude, longitude, range, height, and movement on the map or in text.







IsCatalogInMostPopularTable: catalog: 52750, numindb: 3
Update: records affected: 1



GetName: 52750 FOSSASAT-2E11

Hit Count: updated at: Sun, 14 Aug 2022 00:00:30 GMT